Погода в Ананьеве

Украина / Одесская область     47˚43′11″N   29˚57′59″E
темп.,
°C
ветер,
м/с
пор.,
м/с
влажн.,
%
обл.,
%
осадки,
мм/ч
давл.,
гПа
погр.,
м
5 декабря, сб
сб523:00+1˚вюв511942 0.0 1025307
02:00вюв389620 0.0 1025266
05:00вюв489778 0.0 1026288
08:00+1˚вюв589789 0.0 1026420
11:00+2˚вюв5898100 0.0 1027420
14:00+2˚вюв5792100 0.0 1027480
17:00+1˚в389093 0.0 1028288
20:00−1˚в4119147 0.0 1028292
6 декабря, вс
вс623:00−1˚в411900 0.0 1029338
02:00−2˚в512870 0.0 1030386
05:00−3˚в511770 0.0 1030366
08:00−3˚в511740 0.0 1031402
11:00−1˚в610580 0.0 1031460
14:00в69500 0.0 1030539
17:00−2˚в511560 0.0 1030341
20:00−3˚в512560 0.0 1030439
7 декабря, пн
пн723:00−4˚в513630 0.0 1030448
02:00−5˚в512710 0.0 1030456
05:00−6˚в511720 0.0 1029501
08:00−6˚в612690 0.0 1028514
11:00−4˚в8126832 0.0 1027585
14:00−3˚в7128065 0.0 1026609
17:00−2˚в81383100 0.1 1025617
20:00−1˚в71476100 0.1 1024715
8 декабря, вт
вт823:00−2˚в71281100 0.0 1024638
02:00−3˚в71282100 0.0 1023598
05:00−2˚в71184100 0.0 1022634
08:00−2˚в81284100 0.0 1021654
11:00−1˚в81282100 0.0 1021709
14:00в71282100 0.0 1020499
17:00в71388100 0.2 1020481
20:00в61190100 0.8 1020421
9 декабря, ср
ср923:00+1˚в61096100 1.3 1020355
02:00+1˚в51096100 1.3 1020350
05:00+2˚в61295100 0.0 1020379
08:00+2˚вюв6119498 0.0 1020356
11:00+3˚вюв61193100 0.0 1022340
14:00+4˚вюв61192100 0.0 1021360
17:00+4˚вюв71388100 0.0 1020412
20:00+4˚вюв81487100 0.0 1020502